Location: Oberkirch
(48.5323°N, 8.0787°E)
Time: 05:53:16
(UTC+00:00)

Cosmos 1943 Rocket - Pass Details

Date: 08 November 2025
Orbit: 812 x 841 km, 71.0° (Epoch: 16 December)

Event Time Altitude Azimuth Distance (km) Brightness Sun altitude
Exits shadow 05:47:52 - 316° (NW) 2,945 4.5 -6.6°
Reaches altitude 10° 05:49:36 10° 306° (NW) 2,419 4.0 -6.3°
Maximum altitude 05:53:34 21° 259° (W) 1,775 3.4 -5.7°
Drops below altitude 10° 05:57:32 10° 213° (SSW) 2,397 4.4 -5.0°
Sets 06:00:30 0° 197° (SSW) 3,322 5.3 -4.6°
